When you browse on this site, cookies collect data to enhance your experience and personalize the content and advertising you see.
Visit our Privacy Policy to learn more. By continuing to use the site, you agree to this use of cookies and data.
  • en France
  • Liste des pays
  • À 7 jours
  • Température de l'eau
  • Carte satellitaire
  • Carte météo
  • Widgets météo
  • user-avatar
    Se connecter

    Météo par heure à Brazzaville

    Ce jour, 20 Novembre, Mardi

    Heure Température Précipitation Vent Pression Humidité
    00:00 +23°C° 0.2 mm 0 m/s 733 mmHg 91%
    01:00 +23°C° 0 mm 0 m/s 733 mmHg 92%
    02:00 +23°C° 0.1 mm 0 m/s 733 mmHg 92%
    03:00 +23°C° 0.1 mm 0 m/s 733 mmHg 93%
    04:00 +23°C° 0.1 mm 0 m/s 733 mmHg 93%
    05:00 +23°C° 0 mm 0 m/s 733 mmHg 92%
    06:00 +24°C° 0 mm 0 m/s 734 mmHg 91%
    07:00 +27°C° 0 mm 1 m/s 734 mmHg 89%
    08:00 +29°C° 0.3 mm 1 m/s 734 mmHg 83%
    09:00 +30°C° 0.3 mm 1 m/s 734 mmHg 76%
    10:00 +32°C° 0.3 mm 1 m/s 734 mmHg 69%
    11:00 +33°C° 0.9 mm 1 m/s 734 mmHg 66%
    12:00 +33°C° 0.9 mm 1 m/s 733 mmHg 63%
    13:00 +34°C° 0 mm 1 m/s 732 mmHg 62%
    14:00 +33°C° 0.8 mm 1 m/s 732 mmHg 65%
    15:00 +33°C° 0.8 mm 1 m/s 732 mmHg 68%
    16:00 +32°C° 0.8 mm 1 m/s 731 mmHg 70%
    17:00 +31°C° 1.4 mm 1 m/s 732 mmHg 75%
    18:00 +29°C° 1.4 mm 1 m/s 732 mmHg 80%
    19:00 +27°C° 1.4 mm 1 m/s 733 mmHg 85%
    20:00 +27°C° 0.6 mm 1 m/s 733 mmHg 86%
    21:00 +27°C° 0.6 mm 2 m/s 734 mmHg 87%
    22:00 +27°C° 0.6 mm 2 m/s 734 mmHg 89%
    23:00 +26°C° 0.6 mm 2 m/s 734 mmHg 90%

    Demain, 21 Novembre, Mercredi

    Heure Température Précipitation Vent Pression Humidité
    00:00 +26°C° 0.6 mm 2 m/s 734 mmHg 92%
    01:00 +25°C° 0.6 mm 2 m/s 733 mmHg 93%
    02:00 +25°C° 0.1 mm 1 m/s 733 mmHg 94%
    03:00 +25°C° 0.1 mm 1 m/s 733 mmHg 95%
    04:00 +25°C° 0.1 mm 1 m/s 733 mmHg 96%
    05:00 +25°C° 0.5 mm 1 m/s 733 mmHg 95%
    06:00 +26°C° 0.5 mm 1 m/s 734 mmHg 93%
    07:00 +26°C° 0.5 mm 1 m/s 734 mmHg 92%
    08:00 +27°C° 0.1 mm 1 m/s 734 mmHg 87%
    09:00 +28°C° 0.1 mm 1 m/s 734 mmHg 82%
    10:00 +30°C° 0.1 mm 1 m/s 734 mmHg 76%
    11:00 +30°C° 1.3 mm 1 m/s 734 mmHg 73%
    12:00 +31°C° 1.3 mm 1 m/s 733 mmHg 70%
    13:00 +32°C° 1.3 mm 1 m/s 733 mmHg 67%
    14:00 +31°C° 1.5 mm 1 m/s 733 mmHg 73%
    15:00 +30°C° 1.5 mm 1 m/s 732 mmHg 79%
    16:00 +29°C° 1.5 mm 2 m/s 732 mmHg 85%
    17:00 +28°C° 0.2 mm 1 m/s 732 mmHg 87%
    18:00 +27°C° 0.2 mm 1 m/s 733 mmHg 89%
    19:00 +26°C° 0.2 mm 1 m/s 733 mmHg 91%
    20:00 +26°C° 0 mm 1 m/s 734 mmHg 91%
    21:00 +26°C° 0 mm 1 m/s 734 mmHg 92%
    22:00 +25°C° 0 mm 1 m/s 734 mmHg 92%
    23:00 +25°C° 0 mm 1 m/s 734 mmHg 92%

    Après-demain, 22 Novembre, Jeudi

    Heure Température Précipitation Vent Pression Humidité
    00:00 +25°C° 0 mm 1 m/s 733 mmHg 93%
    01:00 +25°C° 0 mm 1 m/s 733 mmHg 94%
    02:00 +25°C° 0 mm 1 m/s 733 mmHg 94%
    03:00 +24°C° 0 mm 1 m/s 733 mmHg 94%
    04:00 +24°C° 0 mm 1 m/s 732 mmHg 95%
    05:00 +25°C° 0 mm 1 m/s 733 mmHg 93%
    06:00 +23°C° 0 mm 0 m/s 734 mmHg 92%
    07:00 +24°C° 0 mm 0 m/s 734 mmHg 90%
    08:00 +28°C° 0 mm 1 m/s 734 mmHg 83%
    09:00 +29°C° 0 mm 2 m/s 735 mmHg 75%
    10:00 +31°C° 0 mm 2 m/s 735 mmHg 67%
    11:00 +32°C° 0.3 mm 2 m/s 734 mmHg 66%
    12:00 +32°C° 0.3 mm 2 m/s 733 mmHg 64%
    13:00 +34°C° 0.3 mm 2 m/s 733 mmHg 63%
    14:00 +34°C° 1.2 mm 2 m/s 732 mmHg 66%
    15:00 +32°C° 1.2 mm 2 m/s 732 mmHg 69%
    16:00 +32°C° 1.2 mm 2 m/s 731 mmHg 72%
    17:00 +30°C° 1.6 mm 2 m/s 732 mmHg 78%
    18:00 +29°C° 1.6 mm 1 m/s 732 mmHg 83%
    19:00 +27°C° 1.6 mm 1 m/s 733 mmHg 88%
    20:00 +27°C° 1.3 mm 1 m/s 733 mmHg 90%
    21:00 +26°C° 1.3 mm 1 m/s 734 mmHg 91%
    22:00 +26°C° 1.3 mm 1 m/s 734 mmHg 92%
    23:00 +26°C° 0.2 mm 1 m/s 734 mmHg 93%

    23 Novembre, Vendredi

    Heure Température Précipitation Vent Pression Humidité
    00:00 +25°C° 0.2 mm 1 m/s 734 mmHg 94%
    01:00 +25°C° 0.2 mm 1 m/s 733 mmHg 95%
    02:00 +25°C° 0.6 mm 1 m/s 733 mmHg 96%
    03:00 +25°C° 0.6 mm 1 m/s 733 mmHg 96%
    04:00 +25°C° 0.6 mm 1 m/s 733 mmHg 97%
    05:00 +25°C° 0.4 mm 1 m/s 733 mmHg 95%
    06:00 +25°C° 0.4 mm 1 m/s 734 mmHg 94%
    07:00 +26°C° 0.4 mm 1 m/s 735 mmHg 93%
    08:00 +27°C° 0.7 mm 1 m/s 735 mmHg 89%
    09:00 +28°C° 0.7 mm 1 m/s 735 mmHg 86%
    10:00 +29°C° 0.7 mm 1 m/s 735 mmHg 82%
    11:00 +30°C° 0.7 mm 1 m/s 734 mmHg 77%
    12:00 +31°C° 0.7 mm 1 m/s 733 mmHg 73%
    13:00 +32°C° 0.7 mm 1 m/s 732 mmHg 68%
    14:00 +32°C° 0.1 mm 1 m/s 732 mmHg 68%
    15:00 +32°C° 0.1 mm 1 m/s 731 mmHg 68%
    16:00 +32°C° 0.1 mm 1 m/s 731 mmHg 68%
    17:00 +30°C° 0.4 mm 1 m/s 731 mmHg 74%
    18:00 +29°C° 0.4 mm 1 m/s 732 mmHg 79%
    19:00 +25°C° 0.4 mm 0 m/s 733 mmHg 85%
    20:00 +25°C° 0.5 mm 0 m/s 733 mmHg 86%
    21:00 +24°C° 0.5 mm 0 m/s 733 mmHg 88%
    22:00 +24°C° 0.5 mm 0 m/s 734 mmHg 89%
    23:00 +24°C° 0 mm 0 m/s 733 mmHg 90%

    24 Novembre, Samedi

    Heure Température Précipitation Vent Pression Humidité
    00:00 +24°C° 0 mm 0 m/s 733 mmHg 90%
    01:00 +23°C° 0 mm 0 m/s 733 mmHg 91%
    02:00 +23°C° 0 mm 0 m/s 732 mmHg 91%
    03:00 +23°C° 0 mm 0 m/s 732 mmHg 91%
    04:00 +23°C° 0 mm 0 m/s 732 mmHg 92%
    05:00 +23°C° 0 mm 0 m/s 733 mmHg 91%
    06:00 +24°C° 0 mm 0 m/s 733 mmHg 90%
    07:00 +24°C° 0 mm 0 m/s 734 mmHg 89%
    08:00 +26°C° 0.3 mm 0 m/s 734 mmHg 83%
    09:00 +28°C° 0.3 mm 0 m/s 734 mmHg 77%
    10:00 +29°C° 0.3 mm 0 m/s 734 mmHg 71%
    11:00 +32°C° 0.4 mm 1 m/s 733 mmHg 68%
    12:00 +33°C° 0.4 mm 1 m/s 733 mmHg 64%
    13:00 +33°C° 0.4 mm 1 m/s 732 mmHg 60%
    14:00 +33°C° 0.4 mm 1 m/s 731 mmHg 64%
    15:00 +32°C° 0.4 mm 1 m/s 731 mmHg 68%
    16:00 +32°C° 0.4 mm 1 m/s 731 mmHg 71%
    17:00 +30°C° 0.3 mm 1 m/s 732 mmHg 76%
    18:00 +29°C° 0.3 mm 1 m/s 732 mmHg 81%
    19:00 +27°C° 0.3 mm 1 m/s 733 mmHg 86%
    20:00 +27°C° 0.5 mm 1 m/s 733 mmHg 88%
    21:00 +26°C° 0.5 mm 1 m/s 734 mmHg 90%
    22:00 +26°C° 0.5 mm 1 m/s 734 mmHg 92%
    23:00 +26°C° 0.4 mm 1 m/s 734 mmHg 92%

    25 Novembre, Dimanche

    Heure Température Précipitation Vent Pression Humidité
    00:00 +25°C° 0.4 mm 1 m/s 733 mmHg 93%
    01:00 +25°C° 0.4 mm 1 m/s 733 mmHg 93%
    02:00 +25°C° 0.3 mm 1 m/s 733 mmHg 94%
    03:00 +25°C° 0.3 mm 1 m/s 733 mmHg 94%
    04:00 +25°C° 0.3 mm 1 m/s 733 mmHg 95%
    05:00 +25°C° 0 mm 1 m/s 733 mmHg 94%
    06:00 +26°C° 0 mm 1 m/s 733 mmHg 93%
    07:00 +26°C° 0 mm 1 m/s 734 mmHg 92%
    08:00 +27°C° 0 mm 1 m/s 734 mmHg 85%
    09:00 +29°C° 0 mm 2 m/s 734 mmHg 78%
    10:00 +31°C° 0 mm 2 m/s 734 mmHg 72%
    11:00 +32°C° 1 mm 2 m/s 733 mmHg 69%
    12:00 +32°C° 1 mm 2 m/s 732 mmHg 66%
    13:00 +33°C° 1 mm 1 m/s 731 mmHg 63%
    14:00 +33°C° 0.4 mm 1 m/s 731 mmHg 64%
    15:00 +33°C° 0.4 mm 1 m/s 731 mmHg 65%
    16:00 +32°C° 0.4 mm 1 m/s 730 mmHg 66%
    17:00 +31°C° 1.2 mm 1 m/s 731 mmHg 73%
    18:00 +29°C° 1.2 mm 1 m/s 732 mmHg 80%
    19:00 +27°C° 1.2 mm 1 m/s 732 mmHg 86%
    20:00 +27°C° 1.3 mm 1 m/s 733 mmHg 88%
    21:00 +27°C° 1.3 mm 1 m/s 733 mmHg 89%
    22:00 +26°C° 1.3 mm 2 m/s 733 mmHg 91%
    23:00 +26°C° 0.1 mm 1 m/s 733 mmHg 92%
    Voir plus